Wind_Speed
19 18 19 20 20 19 20 21 22 22 22 22 23 23 23 24 25 27 27 27 26 25 25 26 26 25 25 26 26 25 25 26 25 25 25 24 25 25 25 25 26 26 26
17 17 19 19 19 19 18 21 22 22 22 23 23 23 25 25 26 28 29 27 26 27 27 27 27 26 26 26 27 26 26 26 25 26 25 25 26 26 26 27 27 27 27
14 16 18 17 19 20 21 20 21 22 22 23 24 25 25 26 28 28 28 29 28 28 28 27 27 27 27 26 26 25 25 26 26 25 26 26 25 25 26 26 26 26 26
16 15 17 18 19 20 20 21 21 22 23 24 24 25 26 27 28 28 27 28 29 28 27 27 27 27 27 27 27 27 26 27 27 27 27 26 25 25 25 26 26 25 26
16 16 17 18 18 19 20 21 21 21 23 25 26 26 27 27 27 27 27 27 27 27 27 27 27 28 28 28 28 28 28 28 27 27 27 27 27 26 26 25 25 26 26
15 16 17 18 18 18 20 20 20 22 24 25 25 26 27 27 27 27 27 26 27 27 27 27 27 27 27 27 27 28 28 28 28 28 27 27 27 27 26 26 26 26 26
14 16 17 17 17 18 19 21 22 23 24 25 25 26 26 27 27 26 26 26 27 27 27 27 27 26 26 26 27 27 28 27 27 27 27 27 27 27 27 27 26 25 25
14 15 16 17 18 19 20 22 23 23 23 24 25 25 25 25 25 25 25 26 26 27 27 27 26 27 27 27 27 27 28 27 26 27 27 27 27 28 27 27 27 26 26
15 15 15 17 18 19 20 21 21 21 22 23 24 23 24 24 24 25 25 25 25 25 26 26 26 26 26 27 27 26 26 26 26 27 27 27 27 26 26 26 26 26 26
13 14 15 17 17 18 18 18 19 20 21 22 23 23 23 23 24 24 24 24 24 23 24 25 25 25 25 25 25 25 26 26 25 25 26 26 26 26 25 25 26 26 26
12 14 16 16 16 17 17 18 18 18 20 20 21 21 22 23 23 23 23 23 23 23 24 24 24 24 24 24 24 25 25 24 24 24 25 25 25 25 24 25 25 25 26
13 14 15 15 15 16 17 18 17 17 18 20 21 21 21 21 21 22 22 22 23 23 23 23 22 22 23 24 24 24 24 24 24 24 24 24 25 25 25 25 26 26 26
13 14 15 14 15 16 18 18 17 17 18 19 20 20 20 20 20 21 22 22 21 21 21 21 21 22 23 23 23 23 23 23 23 24 24 24 24 24 25 26 26 26 26
13 14 15 15 16 17 18 18 18 17 18 19 19 19 19 19 20 20 20 20 20 21 21 21 21 21 21 21 22 22 22 23 23 24 24 24 24 24 26 26 26 26 26
13 14 14 15 15 16 16 17 17 18 18 19 19 19 19 19 19 19 19 19 19 20 20 20 20 20 21 21 22 22 22 21 22 23 24 24 24 24 25 25 25 25 26
12 13 13 14 15 15 16 16 17 18 18 18 18 18 18 18 19 19 18 18 18 19 20 19 20 20 21 21 21 21 21 21 22 23 23 23 24 25 25 25 25 25 25
12 12 13 14 14 15 16 16 17 18 18 17 17 18 18 18 18 17 17 17 18 18 18 19 20 20 21 21 20 20 21 21 22 23 24 25 26 26 25 25 25 25 25
11 12 13 14 14 14 15 16 17 17 16 16 17 17 17 16 16 16 16 16 17 17 18 18 19 20 20 19 20 21 22 23 23 24 25 26 27 26 27 26 26 26 26
11 12 13 13 13 13 15 16 16 15 15 16 16 16 16 16 15 15 15 15 15 17 18 18 19 20 20 20 21 22 23 24 24 25 26 26 26 26 27 26 26 26 27
12 12 12 12 13 14 15 15 14 14 14 14 15 15 16 15 15 15 15 16 17 17 18 18 19 20 20 21 22 23 24 25 26 27 27 27 27 27 27 26 26 27 27
11 12 12 13 14 14 13 13 13 13 13 14 14 15 15 15 15 15 15 16 17 17 18 19 20 21 21 22 24 24 25 26 27 28 28 28 28 27 27 26 26 26 26
12 12 12 13 13 13 12 12 12 12 12 13 14 15 14 14 15 15 15 16 17 18 19 20 21 22 22 23 25 26 27 28 28 29 28 28 27 27 27 25 24 24 24
11 11 12 12 12 11 11 11 11 11 12 13 15 15 14 14 15 16 16 17 18 19 20 21 21 22 23 25 26 27 28 29 29 28 28 27 26 26 26 25 23 23 22
10 10 11 11 11 11 10 11 10 10 12 13 14 14 14 15 16 16 17 17 18 20 21 21 22 23 24 26 27 28 28 29 29 28 28 26 25 25 24 23 23 22 22
9 9 9 10 10 10 10 10 10 10 12 14 14 14 15 16 17 17 17 18 19 20 21 22 23 24 26 27 28 29 28 28 28 28 27 26 25 24 23 22 22 21 21
8 9 9 9 9 9 9 9 9 10 11 13 14 14 15 16 17 18 18 19 20 21 22 23 24 26 27 29 29 29 29 29 28 28 27 26 25 24 22 21 21 21 21
Wind_Direction
278 275 276 277 278 278 276 274 275 275 275 279 281 283 285 287 287 289 292 293 291 289 291 292 292 293 294 294 293 292 291 290 290 290 290 288 287 288 286 283 282 281 279
278 277 278 276 276 278 278 273 276 277 277 280 283 285 286 286 288 291 293 294 293 290 290 291 291 292 292 293 293 292 290 291 291 289 289 288 287 287 285 283 283 282 279
278 278 278 278 280 280 283 280 279 278 279 281 282 284 286 287 290 292 292 293 293 291 290 290 290 290 291 292 292 290 289 290 290 289 290 288 285 286 287 286 285 282 279
285 282 284 285 284 283 286 285 286 284 283 284 284 285 287 290 290 291 293 293 294 292 290 290 290 290 291 291 290 289 289 289 289 290 289 288 287 287 285 285 285 282 280
282 284 288 290 289 290 290 288 289 288 289 289 289 288 290 290 292 292 291 291 292 293 293 293 292 290 290 291 290 288 289 289 289 289 289 288 288 288 286 284 284 282 281
286 288 290 292 292 292 292 290 291 292 292 291 290 290 293 294 295 293 291 292 293 293 293 293 292 291 289 290 290 289 290 289 290 290 289 289 289 289 287 284 283 282 280
287 285 289 294 292 293 293 293 293 292 293 293 292 292 295 295 295 296 295 294 293 293 293 292 292 292 291 291 291 291 292 292 291 291 290 290 290 290 288 285 284 283 281
286 284 288 293 294 296 297 296 296 295 295 296 296 295 295 297 297 297 298 297 295 295 293 294 293 293 293 292 292 292 294 293 292 292 291 291 291 291 289 287 284 283 282
290 290 295 298 300 301 301 300 299 298 297 297 297 298 298 299 300 299 300 300 299 296 295 294 293 293 294 295 294 294 296 295 295 294 294 293 291 291 289 287 285 284 282
298 299 302 302 302 303 304 304 303 302 302 300 298 298 298 300 301 301 300 302 300 299 296 295 294 294 295 296 295 297 299 299 299 296 294 292 290 291 290 288 286 285 283
307 309 309 306 305 306 307 307 305 304 304 304 302 302 301 301 302 303 302 301 300 301 300 298 298 296 296 297 297 299 299 299 299 297 296 295 292 292 291 290 289 286 284
313 313 311 313 312 313 314 313 311 309 308 307 306 307 306 304 304 304 305 304 302 303 304 301 299 298 298 298 299 299 299 299 300 299 298 295 293 291 289 290 289 287 287
317 314 319 320 318 319 322 324 319 315 313 311 312 312 309 308 308 308 307 306 305 305 305 302 300 301 301 301 301 301 301 301 301 300 299 296 295 294 294 292 290 289 288
317 316 316 318 318 320 321 321 321 319 317 317 316 315 315 314 312 312 310 309 308 307 306 305 304 305 306 305 305 303 302 302 302 300 299 298 297 297 296 293 291 289 288
317 318 316 318 321 322 321 321 323 324 323 322 322 320 318 318 316 316 314 313 311 311 310 310 308 309 310 310 309 307 304 302 303 304 302 300 298 300 298 295 293 291 289
316 318 320 323 323 323 325 324 327 328 328 328 327 327 324 321 320 318 317 316 315 314 314 313 314 314 314 314 313 310 307 304 304 306 305 303 301 302 299 296 295 293 290
316 318 322 325 326 326 327 330 330 331 331 331 330 328 327 325 324 323 322 321 320 318 317 316 316 317 317 317 316 315 313 311 311 309 306 305 304 303 302 300 297 294 291
313 316 322 327 330 331 332 333 335 335 336 338 339 338 336 333 331 331 329 326 325 324 324 320 320 321 322 322 321 321 317 315 315 311 309 308 305 304 302 300 296 293 290
313 317 322 328 333 333 333 334 337 338 338 340 342 344 344 342 342 341 336 332 331 329 329 325 327 327 326 325 324 323 320 319 318 315 311 308 306 305 303 299 296 292 290
317 321 324 329 333 334 335 336 338 339 340 343 345 347 347 347 346 344 341 339 338 337 336 333 332 331 329 327 326 325 323 322 320 318 314 312 309 306 304 301 298 296 294
315 320 325 331 332 333 336 340 340 341 345 347 347 347 348 348 348 347 345 343 342 340 339 338 335 334 332 330 329 327 325 323 321 319 317 315 313 310 309 307 304 302 300
317 319 323 328 330 332 336 341 343 344 347 347 346 345 346 348 351 351 349 347 345 343 341 339 337 335 334 333 331 328 326 325 324 323 321 319 318 315 313 310 308 305 303
317 319 322 325 328 330 333 339 341 345 346 347 347 348 346 349 351 351 350 348 347 345 343 340 339 337 337 335 333 331 330 328 327 325 324 323 321 319 317 315 312 309 305
312 316 319 323 327 329 331 335 337 342 346 348 348 349 349 350 350 351 351 349 347 345 344 343 342 340 339 337 336 335 334 333 331 330 328 327 326 325 323 320 315 312 310
307 312 317 319 323 328 329 333 337 341 345 348 350 350 351 351 351 351 350 348 347 346 347 346 344 343 342 341 339 339 338 336 335 334 334 332 332 331 327 324 321 317 314
307 313 317 318 320 325 330 335 340 343 345 348 350 351 352 353 352 352 350 350 349 350 350 349 348 346 344 343 343 343 343 341 340 340 340 340 338 336 332 327 324 321 321
Height
5835 5834 5834 5833 5833 5832 5831 5830 5829 5828 5828 5827 5826 5826 5824 5823 5821 5819 5816 5814 5811 5810 5808 5806 5804 5802 5800 5798 5796 5793 5791 5789 5787 5785 5783 5781 5779 5776 5774 5772 5770 5768 5766
5830 5830 5829 5828 5827 5826 5825 5825 5824 5823 5822 5821 5820 5819 5818 5816 5814 5812 5810 5808 5805 5803 5801 5799 5797 5795 5793 5791 5789 5786 5784 5782 5780 5778 5776 5774 5772 5769 5767 5764 5762 5760 5758
5825 5825 5824 5823 5822 5822 5821 5820 5819 5817 5816 5815 5814 5813 5811 5810 5808 5806 5804 5801 5799 5797 5794 5792 5790 5788 5786 5783 5782 5779 5777 5775 5772 5770 5769 5767 5764 5762 5759 5757 5754 5752 5750
5820 5819 5819 5818 5818 5817 5816 5815 5814 5812 5810 5809 5808 5806 5805 5803 5801 5798 5796 5794 5792 5790 5787 5785 5783 5781 5778 5776 5774 5772 5770 5767 5765 5763 5761 5759 5756 5755 5752 5750 5747 5744 5742
5816 5815 5815 5814 5813 5812 5811 5809 5807 5806 5805 5803 5801 5799 5798 5796 5793 5791 5789 5787 5785 5783 5780 5778 5776 5773 5771 5769 5767 5764 5762 5760 5757 5755 5753 5750 5748 5746 5744 5742 5739 5737 5734
5811 5811 5810 5810 5809 5808 5806 5804 5801 5800 5799 5797 5795 5793 5791 5788 5786 5784 5782 5780 5778 5775 5773 5771 5768 5766 5764 5762 5759 5757 5754 5752 5750 5747 5745 5742 5740 5738 5735 5733 5731 5729 5727
5807 5807 5806 5805 5804 5802 5800 5798 5796 5794 5793 5790 5788 5786 5784 5782 5780 5777 5774 5772 5770 5768 5765 5763 5761 5759 5756 5754 5751 5749 5747 5744 5742 5739 5737 5734 5732 5729 5727 5725 5723 5721 5719
5804 5803 5802 5801 5799 5797 5795 5792 5790 5788 5786 5784 5782 5779 5777 5775 5772 5770 5768 5765 5763 5760 5758 5756 5754 5752 5749 5747 5744 5741 5739 5736 5734 5732 5729 5726 5723 5720 5718 5716 5714 5713 5711
5800 5799 5797 5796 5794 5792 5790 5787 5785 5782 5780 5778 5775 5773 5771 5768 5766 5763 5760 5758 5756 5753 5751 5749 5747 5745 5742 5739 5737 5734 5732 5729 5726 5724 5721 5718 5715 5712 5710 5708 5706 5705 5703
5797 5795 5793 5791 5789 5787 5784 5782 5779 5777 5774 5772 5770 5767 5765 5762 5760 5757 5754 5752 5749 5747 5745 5742 5740 5738 5735 5733 5730 5727 5725 5722 5719 5716 5713 5710 5707 5705 5702 5700 5698 5696 5695
5793 5791 5789 5787 5785 5783 5780 5777 5774 5771 5769 5767 5764 5762 5759 5756 5754 5751 5748 5746 5743 5741 5738 5735 5733 5731 5729 5726 5723 5720 5718 5715 5712 5709 5706 5703 5700 5697 5695 5692 5690 5688 5686
5789 5788 5785 5783 5781 5778 5776 5772 5769 5767 5764 5761 5759 5756 5753 5751 5748 5746 5743 5740 5737 5735 5732 5729 5727 5725 5722 5720 5717 5714 5711 5708 5705 5702 5698 5695 5693 5690 5688 5685 5682 5680 5678
5785 5783 5781 5779 5776 5774 5771 5768 5765 5762 5760 5757 5754 5751 5748 5746 5743 5740 5737 5734 5731 5729 5726 5724 5721 5719 5716 5713 5710 5707 5704 5701 5698 5695 5691 5688 5686 5683 5681 5678 5675 5672 5670
5782 5780 5778 5776 5774 5771 5768 5765 5762 5759 5756 5753 5749 5747 5744 5741 5738 5735 5732 5729 5727 5724 5721 5719 5716 5713 5710 5707 5704 5701 5697 5694 5691 5688 5684 5681 5679 5676 5673 5670 5667 5665 5662
5780 5778 5775 5773 5771 5768 5765 5762 5759 5756 5752 5749 5746 5742 5739 5736 5733 5730 5728 5725 5722 5720 5717 5714 5711 5708 5705 5702 5698 5694 5691 5688 5684 5681 5678 5675 5672 5669 5666 5662 5660 5657 5655
5777 5775 5773 5770 5768 5765 5762 5759 5756 5753 5749 5746 5742 5739 5735 5732 5729 5727 5724 5721 5719 5716 5713 5710 5707 5703 5700 5696 5693 5689 5685 5682 5679 5675 5672 5668 5665 5662 5658 5655 5652 5649 5647
5774 5772 5770 5768 5765 5762 5760 5757 5754 5750 5746 5743 5739 5736 5732 5729 5726 5723 5721 5718 5715 5712 5709 5706 5703 5699 5696 5692 5688 5683 5680 5676 5673 5669 5666 5662 5658 5654 5651 5648 5645 5642 5639
5771 5770 5768 5765 5762 5760 5757 5754 5751 5748 5744 5741 5737 5733 5729 5726 5723 5720 5718 5715 5712 5709 5706 5702 5698 5695 5691 5688 5683 5679 5675 5671 5667 5664 5660 5656 5652 5648 5644 5641 5638 5634 5631
5768 5767 5765 5763 5760 5757 5755 5752 5749 5746 5743 5739 5735 5731 5728 5725 5721 5718 5715 5712 5709 5706 5702 5699 5695 5691 5687 5684 5679 5675 5671 5667 5662 5658 5654 5649 5645 5641 5637 5633 5630 5626 5623
5765 5764 5762 5760 5758 5755 5753 5750 5747 5744 5741 5738 5734 5731 5727 5724 5720 5717 5713 5710 5707 5704 5700 5696 5692 5688 5684 5680 5676 5671 5667 5662 5658 5653 5647 5643 5638 5634 5629 5625 5622 5618 5614
5762 5761 5759 5758 5756 5753 5751 5748 5746 5743 5740 5737 5734 5730 5727 5723 5719 5716 5712 5709 5705 5702 5698 5694 5690 5686 5681 5677 5672 5667 5662 5657 5652 5646 5641 5636 5631 5626 5622 5617 5613 5610 5606
5759 5758 5757 5755 5753 5751 5749 5747 5744 5742 5739 5736 5733 5730 5726 5722 5719 5715 5711 5708 5704 5700 5696 5692 5688 5683 5678 5673 5668 5663 5657 5651 5646 5640 5635 5629 5624 5619 5614 5610 5606 5602 5599
5757 5756 5754 5753 5751 5749 5747 5745 5743 5741 5738 5735 5732 5729 5725 5722 5718 5714 5710 5707 5703 5699 5694 5690 5685 5680 5675 5670 5664 5658 5652 5646 5640 5634 5628 5623 5617 5612 5608 5603 5599 5596 5592
5754 5753 5752 5751 5749 5747 5746 5744 5741 5739 5737 5734 5731 5728 5725 5721 5717 5713 5710 5706 5701 5697 5692 5688 5683 5677 5672 5666 5661 5654 5648 5641 5635 5629 5623 5617 5611 5606 5601 5597 5593 5589 5585
5752 5751 5750 5749 5747 5746 5744 5742 5740 5738 5736 5733 5730 5727 5724 5720 5716 5712 5708 5704 5700 5695 5691 5685 5680 5675 5669 5663 5657 5650 5644 5637 5631 5624 5618 5613 5607 5601 5596 5592 5588 5584 5580
5750 5749 5748 5747 5746 5744 5743 5741 5739 5737 5735 5732 5730 5726 5723 5719 5716 5712 5707 5703 5699 5694 5689 5684 5678 5672 5666 5659 5653 5646 5639 5633 5626 5620 5614 5608 5602 5597 5592 5587 5583 5579 5574